Tracking 31033 objects as of 15-Jul-2025
HD Live streaming from Space Station
objects crossing your sky now

FENGYUN 1C DEB

Track FENGYUN 1C DEB now!
10-day predictions


NORAD ID: 30322
Int'l Code: 1999-025AAK
Perigee: 789.9 km
Apogee: 975.0 km
Inclination: 98.4 °
Period: 102.5 minutes
Semi major axis: 7253 km
RCS: 0.0387 m2 (small)
Launch date: May 10, 1999
Source: People's Republic of China (PRC)
Launch site: Taiyaun Space Center, China (TSC)

Note: This is SATELLITE DEBRIS
Your satellite tracking list
Your tracking list is empty




NASA's NSSDC Master Catalog

Two Line Element Set (TLE):
1 30322U 99025AAK 25194.87025674  .00001017  00000-0  60693-3 0  9991
2 30322  98.4138  63.4457 0127603 324.9516  34.3305 14.05349189940660
Source of the keplerian elements: AFSPC